TimeCDT,TemperatureF,Dew PointF,Humidity,Sea Level PressureIn,VisibilityMPH,Wind Direction,Wind SpeedMPH,Gust SpeedMPH,PrecipitationIn,Events,Conditions,WindDirDegrees,DateUTC
12:53 AM,62.1,55.9,80,29.95,10.0,Calm,Calm,-,N/A,,Clear,0,2012-10-03 05:53:00
1:53 AM,62.1,55.9,80,29.95,10.0,Calm,Calm,-,N/A,,Clear,0,2012-10-03 06:53:00
2:53 AM,61.0,55.9,83,29.96,10.0,Calm,Calm,-,N/A,,Clear,0,2012-10-03 07:53:00
3:53 AM,61.0,55.9,83,29.95,10.0,Calm,Calm,-,N/A,,Clear,0,2012-10-03 08:53:00
4:53 AM,59.0,55.0,87,29.96,10.0,Calm,Calm,-,N/A,,Clear,0,2012-10-03 09:53:00
5:53 AM,59.0,55.0,87,29.97,10.0,Calm,Calm,-,N/A,,Clear,0,2012-10-03 10:53:00
6:53 AM,57.9,55.0,90,29.98,10.0,Calm,Calm,-,N/A,,Clear,0,2012-10-03 11:53:00
7:53 AM,57.9,55.0,90,29.99,10.0,Calm,Calm,-,N/A,,Clear,0,2012-10-03 12:53:00
8:53 AM,64.0,57.9,80,30.01,10.0,SSE,3.5,-,N/A,,Clear,160,2012-10-03 13:53:00
9:53 AM,69.1,57.0,65,30.02,10.0,South,6.9,-,N/A,,Clear,180,2012-10-03 14:53:00
10:53 AM,75.0,55.9,51,30.03,10.0,South,9.2,-,N/A,,Clear,170,2012-10-03 15:53:00
11:53 AM,78.1,55.9,46,30.02,10.0,SSE,6.9,-,N/A,,Clear,160,2012-10-03 16:53:00
12:53 PM,79.0,54.0,42,30.00,10.0,SSE,11.5,18.4,N/A,,Clear,150,2012-10-03 17:53:00
1:53 PM,81.0,54.0,39,29.98,10.0,South,10.4,-,N/A,,Scattered Clouds,180,2012-10-03 18:53:00
2:53 PM,81.0,52.0,36,29.96,10.0,South,13.8,18.4,N/A,,Partly Cloudy,170,2012-10-03 19:53:00
3:53 PM,82.0,52.0,35,29.95,10.0,South,12.7,-,N/A,,Partly Cloudy,180,2012-10-03 20:53:00
5:53 PM,81.0,50.0,34,29.96,10.0,SSE,11.5,-,N/A,,Clear,160,2012-10-03 22:53:00
6:53 PM,77.0,52.0,42,29.96,10.0,SSE,6.9,-,N/A,,Clear,160,2012-10-03 23:53:00
7:53 PM,72.0,53.1,51,29.97,10.0,SE,3.5,-,N/A,,Clear,140,2012-10-04 00:53:00
8:53 PM,71.1,54.0,55,29.99,10.0,SE,5.8,-,N/A,,Clear,140,2012-10-04 01:53:00
9:53 PM,68.0,54.0,61,30.01,10.0,SE,4.6,-,N/A,,Clear,140,2012-10-04 02:53:00
10:53 PM,68.0,53.1,59,30.02,10.0,SE,5.8,-,N/A,,Clear,130,2012-10-04 03:53:00
11:53 PM,68.0,53.1,59,30.03,10.0,SE,5.8,-,N/A,,Clear,140,2012-10-04 04:53:00